Find Starlink 36704

NORAD ID: 67697 Int'l Des: 2026-025 Owner: SPXS Country: US Constellation: starlink operational
LEOCIRCULARRETROGRADE

当前视图

正在加载3D地球...

About Starlink 36704

Starlink 36704 (NORAD 67697) is a starlink constellation satellite (v2 mini) launched Feb 7, 2026 by SPXS of US. It operates in LEO, CIRCULAR, RETROGRADE orbit with a mass of 575.00 kg.

关于 Starlink 36704

正在加载描述...

即将过境

Passes for default location (London). Set your location on the main map for personalized predictions.

高度历史

Loading altitude history...

两行轨道根数

1 67697U 26025E 26195.54947618 .00005808 00000-0 18213-3 0 9996
2 67697 97.2846 306.4369 0000554 92.8339 267.2967 15.33439332 25453
Epoch: Jul 14, 2026 • Age: 11 hours

当前状态

高度 493.5 km
远地点 / 近地点 N/A
速度 7.62 km/s
星下点 -76.35°S, 48.44°E
发射日期 Feb 7, 2026
运行时间 0.4 years
类型 internet

技术详情

分类 Payload
质量 575.00 kg
干质量 530.00 kg
总质量 575.00 kg
长度 0.30 m
直径 4.10 m
跨度 29.00 m
形状 Box + pan
制造商 SPXS
平台类型 Starlink V2MO
阶段状态 In Orbit
所有者/国家 SPXS/US

Most Searched